Probability
0 0 0 0 0 0 0 0 0 0 0 0 0 0 0 0 0 0 0 0 0 0 0 0 0 0 0 0 0 0 0 0 0 0 0 0 0 0 0 0 0 0 0 0
0 0 0 0 0 0 0 0 0 0 0 0 0 0 0 0 0 0 0 0 0 0 0 0 0 0 0 0 0 0 0 0 0 0 0 0 0 0 0 0 0 0 0 0
0 0 0 0 0 0 0 0 0 0 0 0 0 0 0 0 0 0 0 0 0 0 0 0 0 0 0 0 0 0 0 0 0 0 0 0 0 0 0 0 0 0 0 0
0 0 0 0 0 0 0 0 0 0 0 0 0 0 0 0 0 0 0 0 0 0 0 0 0 0 0 0 0 0 0 0 0 0 0 0 0 0 0 0 0 0 0 0
0 0 0 0 0 0 0 0 0 0 0 0 0 0 0 0 0 0 0 0 0 0 0 0 0 0 0 0 0 0 0 0 0 0 0 0 0 0 0 0 0 0 0 0
0 0 0 0 0 0 0 0 0 0 0 0 0 0 0 0 0 0 0 0 0 0 0 0 0 0 0 0 0 0 0 0 0 0 0 0 0 0 0 0 0 0 0 0
0 0 0 0 0 0 0 0 0 0 0 0 0 0 0 0 0 0 0 0 0 0 0 0 0 0 0 0 0 0 0 0 0 0 0 0 0 0 0 0 0 0 0 0
0 0 0 0 0 0 0 0 0 0 0 0 0 0 0 0 0 0 0 0 0 0 0 0 0 0 0 0 0 0 0 0 0 0 0 0 0 0 0 0 0 0 0 0
0 0 0 0 0 0 0 0 0 0 0 0 0 0 0 0 0 0 0 0 0 0 0 0 0 0 0 0 0 0 0 0 0 0 0 0 0 0 0 0 0 0 0 0
0 0 0 0 0 0 0 0 0 0 0 0 0 0 0 0 0 0 0 0 0 0 0 0 0 0 0 0 0 0 0 0 0 0 0 0 0 0 0 0 0 0 0 0
0 0 0 0 0 0 0 0 0 0 0 0 0 0 0 0 0 0 0 0 0 0 0 0 0 0 0 0 0 0 0 0 0 0 0 0 0 0 0 0 0 0 0 0
0 0 0 0 0 0 0 0 0 0 0 0 0 0 0 0 0 0 0 0 0 0 0 0 0 0 0 0 0 0 0 0 0 0 0 0 0 0 0 0 0 0 0 0
0 0 0 0 0 0 0 0 0 0 0 0 0 0 0 0 0 0 0 0 0 0 0 0 0 0 0 0 0 0 0 0 0 0 0 0 0 0 0 0 0 0 0 0
0 0 0 0 0 0 0 0 0 0 0 0 0 0 0 0 0 0 0 0 0 0 0 0 0 0 0 0 0 0 0 0 0 0 0 0 0 0 0 0 0 0 0 0
0 0 0 0 0 0 0 0 0 0 0 0 0 0 0 0 0 0 0 0 0 0 0 0 0 0 0 0 0 0 0 0 0 0 0 0 0 0 0 0 0 0 0 0
0 0 0 0 0 0 0 0 0 0 0 0 0 0 0 0 0 0 0 0 0 0 0 0 0 0 0 0 0 0 0 0 0 0 0 0 0 0 0 0 0 0 0 0
0 0 0 0 0 0 0 0 0 0 0 0 0 0 0 0 0 0 0 0 0 0 0 0 0 0 0 0 0 0 0 0 0 0 0 0 0 0 0 0 0 0 0 0
0 0 0 0 0 0 0 0 0 0 0 0 0 0 0 0 0 0 0 0 0 0 0 0 0 0 0 0 0 0 0 0 0 0 0 0 0 0 0 0 0 0 0 0
0 0 0 0 0 0 0 0 0 0 0 0 0 0 0 0 0 0 0 0 0 0 0 0 0 0 0 0 0 0 0 0 0 0 0 0 0 0 0 0 0 0 0 0
0 0 0 0 0 0 0 0 0 0 0 0 0 0 0 0 0 0 0 0 0 0 0 0 0 0 0 0 0 0 0 0 0 0 0 0 0 0 0 0 0 0 0 0
0 0 0 0 0 0 0 0 0 0 0 0 0 0 0 0 0 0 0 0 0 0 0 0 0 0 0 0 0 0 0 0 0 0 0 0 0 0 0 0 0 0 0 0
0 0 0 0 0 0 0 0 0 0 0 0 0 0 0 0 0 0 0 0 0 0 0 0 0 0 0 0 0 0 0 0 0 0 0 0 0 0 0 0 0 0 0 0
0 0 0 0 0 0 0 0 0 0 0 0 0 0 0 0 0 0 0 0 0 0 0 0 0 0 0 0 0 0 0 0 0 0 0 0 0 0 0 0 0 0 0 0
0 0 0 0 0 0 0 0 0 0 0 0 0 0 0 0 0 0 0 0 0 0 0 0 0 0 0 0 0 0 0 0 0 0 0 0 0 0 0 0 0 0 0 0
0 0 0 0 0 0 0 0 0 0 0 0 0 0 0 0 0 0 0 0 0 0 0 0 0 0 0 0 0 0 0 0 0 0 0 0 0 0 0 0 0 0 0 0
0 0 0 0 0 0 0 0 0 0 0 0 0 0 0 0 0 0 0 0 0 0 0 0 0 0 0 0 0 0 0 0 0 0 0 0 0 0 0 0 0 0 0 0
Height
5858 5858 5855 5854 5852 5850 5848 5847 5845 5843 5841 5840 5839 5839 5838 5836 5835 5834 5832 5831 5829 5827 5825 5823 5820 5818 5815 5812 5809 5805 5801 5797 5793 5788 5783 5778 5773 5767 5761 5754 5748 5741 5734 5727
5855 5854 5852 5850 5848 5846 5844 5842 5841 5839 5837 5835 5835 5835 5834 5832 5831 5830 5828 5827 5825 5823 5821 5818 5816 5813 5810 5807 5803 5799 5795 5790 5785 5781 5776 5771 5765 5759 5753 5746 5739 5732 5725 5717
5851 5850 5848 5846 5844 5842 5840 5838 5836 5834 5832 5831 5830 5832 5830 5828 5826 5825 5824 5822 5820 5818 5815 5813 5810 5807 5804 5800 5797 5792 5788 5783 5778 5773 5768 5763 5757 5750 5744 5737 5730 5722 5715 5707
5847 5846 5844 5842 5839 5837 5836 5833 5831 5829 5827 5826 5825 5825 5827 5823 5822 5820 5818 5816 5814 5812 5809 5807 5804 5801 5797 5793 5789 5785 5780 5775 5770 5764 5759 5753 5748 5741 5735 5728 5720 5712 5704 5696
5842 5841 5840 5838 5835 5832 5830 5828 5826 5824 5822 5821 5820 5818 5823 5819 5817 5815 5813 5811 5808 5806 5803 5800 5797 5794 5790 5786 5782 5777 5772 5767 5761 5756 5750 5744 5738 5731 5725 5717 5709 5701 5693 5685
5838 5836 5835 5833 5831 5828 5825 5823 5820 5818 5817 5817 5815 5813 5816 5814 5812 5809 5807 5804 5801 5799 5796 5793 5789 5786 5781 5777 5773 5768 5763 5758 5752 5746 5740 5734 5728 5721 5714 5706 5698 5690 5682 5673
5835 5832 5830 5828 5826 5823 5820 5818 5814 5812 5811 5811 5809 5808 5811 5808 5805 5802 5800 5797 5794 5791 5788 5784 5781 5777 5773 5768 5763 5758 5753 5748 5742 5736 5730 5724 5717 5710 5702 5694 5687 5678 5670 5661
5829 5829 5826 5823 5820 5818 5815 5813 5809 5806 5804 5804 5803 5802 5806 5802 5798 5795 5792 5789 5786 5782 5778 5775 5771 5767 5763 5758 5753 5748 5742 5737 5731 5725 5719 5712 5705 5698 5691 5683 5675 5666 5657 5648
5823 5823 5821 5818 5815 5813 5810 5808 5805 5800 5796 5795 5795 5796 5798 5795 5791 5788 5784 5780 5776 5772 5768 5764 5761 5757 5752 5747 5742 5737 5731 5726 5720 5713 5707 5701 5694 5686 5678 5670 5662 5654 5645 5636
5817 5817 5816 5813 5810 5807 5804 5801 5799 5794 5789 5786 5786 5788 5789 5787 5784 5781 5776 5771 5766 5762 5758 5753 5750 5745 5741 5736 5730 5725 5719 5714 5708 5701 5695 5689 5681 5674 5666 5658 5650 5641 5632 5623
5810 5810 5810 5808 5805 5801 5799 5796 5792 5787 5784 5780 5775 5781 5783 5778 5774 5769 5765 5760 5755 5751 5747 5743 5739 5734 5729 5723 5718 5713 5707 5701 5695 5689 5682 5676 5669 5661 5653 5645 5637 5628 5619 5610
5804 5802 5802 5801 5799 5795 5791 5789 5785 5782 5778 5773 5767 5771 5774 5768 5762 5757 5753 5749 5744 5740 5736 5732 5727 5722 5717 5711 5706 5700 5694 5688 5682 5676 5669 5663 5655 5647 5640 5632 5623 5615 5606 5596
5797 5795 5793 5793 5793 5788 5784 5781 5778 5774 5770 5765 5760 5762 5763 5756 5749 5745 5741 5737 5733 5729 5725 5720 5715 5710 5705 5699 5693 5687 5681 5675 5669 5662 5656 5649 5641 5633 5626 5618 5610 5601 5592 5583
5789 5787 5786 5784 5782 5777 5774 5773 5770 5766 5761 5756 5753 5750 5751 5745 5738 5734 5730 5726 5722 5717 5712 5708 5703 5698 5692 5686 5680 5674 5668 5662 5655 5649 5642 5635 5627 5620 5612 5604 5596 5588 5579 5570
5780 5778 5777 5775 5773 5768 5764 5764 5761 5756 5752 5746 5743 5739 5737 5730 5725 5721 5717 5713 5709 5705 5700 5695 5690 5684 5679 5673 5667 5661 5654 5648 5641 5634 5627 5620 5613 5605 5598 5590 5582 5574 5565 5556
5771 5768 5765 5764 5763 5757 5754 5756 5752 5747 5742 5736 5732 5729 5727 5719 5714 5710 5705 5700 5696 5691 5686 5681 5676 5671 5665 5659 5653 5646 5640 5633 5626 5619 5613 5605 5598 5591 5584 5576 5568 5560 5551 5543
5762 5758 5754 5751 5750 5746 5745 5748 5742 5737 5732 5726 5720 5718 5712 5708 5703 5698 5693 5688 5683 5678 5673 5668 5662 5657 5651 5644 5638 5631 5625 5618 5611 5605 5598 5590 5583 5577 5569 5562 5554 5546 5538 5530
5750 5747 5742 5738 5736 5731 5737 5733 5729 5723 5720 5715 5708 5704 5699 5695 5691 5685 5679 5674 5669 5664 5659 5653 5648 5642 5637 5630 5623 5616 5610 5603 5597 5590 5582 5575 5569 5562 5555 5548 5540 5533 5525 5517
5741 5736 5731 5727 5721 5718 5722 5721 5713 5708 5706 5702 5694 5689 5685 5681 5677 5673 5667 5661 5655 5650 5644 5639 5633 5627 5622 5615 5608 5602 5596 5589 5582 5575 5568 5561 5554 5548 5541 5534 5527 5519 5512 5504
5730 5726 5723 5717 5710 5707 5711 5705 5699 5694 5691 5686 5679 5674 5670 5666 5662 5661 5656 5649 5643 5638 5631 5625 5619 5613 5607 5600 5594 5588 5581 5575 5568 5561 5554 5548 5541 5534 5528 5521 5514 5507 5499 5492
5718 5714 5711 5705 5699 5696 5698 5692 5686 5681 5678 5671 5666 5661 5657 5652 5648 5644 5640 5635 5629 5623 5617 5611 5605 5599 5593 5586 5580 5574 5567 5561 5554 5548 5541 5534 5527 5521 5514 5508 5501 5494 5487 5480
5707 5703 5699 5694 5688 5687 5683 5677 5672 5668 5663 5658 5653 5648 5643 5639 5635 5630 5626 5620 5615 5609 5603 5597 5591 5586 5579 5572 5566 5560 5554 5548 5542 5535 5528 5522 5515 5508 5501 5495 5488 5481 5474 5467
5696 5693 5688 5684 5682 5677 5670 5664 5659 5654 5650 5645 5640 5636 5631 5627 5623 5618 5613 5608 5602 5596 5590 5584 5578 5573 5567 5559 5553 5547 5541 5535 5529 5523 5516 5509 5503 5496 5489 5482 5476 5469 5462 5455
5687 5682 5677 5673 5671 5665 5659 5652 5648 5643 5638 5633 5628 5624 5619 5614 5610 5605 5601 5595 5590 5584 5578 5572 5566 5561 5555 5547 5540 5533 5528 5522 5516 5510 5503 5497 5490 5484 5477 5471 5464 5457 5450 5443
5676 5670 5665 5661 5658 5653 5649 5642 5637 5632 5627 5622 5617 5612 5607 5602 5598 5593 5589 5583 5578 5572 5566 5560 5554 5548 5542 5535 5529 5522 5515 5509 5503 5497 5490 5483 5477 5471 5464 5458 5452 5445 5439 5432
5665 5658 5652 5649 5645 5639 5638 5631 5626 5621 5616 5611 5606 5601 5596 5591 5587 5582 5577 5571 5566 5560 5554 5548 5542 5536 5530 5523 5517 5509 5503 5496 5489 5483 5476 5470 5463 5457 5451 5445 5439 5433 5427 5421
Wind_Speed
19 20 21 21 21 22 22 21 21 21 21 20 18 17 18 18 17 17 17 17 18 18 19 20 21 22 23 25 26 27 28 29 31 32 34 36 38 40 42 44 45 47 48 49
19 20 22 22 22 23 23 23 23 23 23 23 21 19 20 20 19 19 20 20 20 21 22 23 24 25 26 28 29 30 31 32 34 35 37 38 40 42 44 46 47 49 50 51
20 21 23 23 23 24 24 25 25 25 25 25 24 21 21 22 21 21 21 22 23 23 24 25 26 28 29 30 32 33 34 35 37 38 39 41 43 45 47 48 50 51 52 53
21 22 23 24 25 26 25 27 27 27 27 27 27 25 20 23 22 22 23 24 25 26 26 27 29 30 32 33 34 36 37 38 40 41 42 44 46 47 49 51 52 53 54 56
22 23 24 25 26 28 27 28 29 29 29 28 27 29 20 23 23 24 25 26 27 28 29 30 31 33 34 36 37 39 40 41 43 44 46 47 49 50 52 53 55 55 56 58
24 25 26 26 27 29 29 30 31 30 30 30 28 30 25 24 25 26 27 27 28 30 31 32 34 36 38 39 41 42 44 45 46 48 49 50 52 53 54 55 57 57 58 59
24 25 27 28 28 29 30 31 33 33 31 30 30 30 26 26 26 27 28 29 31 32 34 35 37 39 41 43 44 46 47 48 50 51 51 53 54 55 56 57 58 59 60 61
25 25 27 28 28 29 29 31 33 35 35 33 32 31 26 27 28 30 31 32 34 35 37 39 41 43 45 46 48 49 50 51 53 53 54 55 56 57 58 59 60 60 62 63
28 27 27 28 29 30 31 30 32 36 38 37 35 33 28 26 29 31 32 35 37 40 42 44 45 46 48 49 51 52 53 54 55 56 57 57 58 59 59 60 61 63 63 64
31 29 27 29 30 31 32 33 34 36 40 41 39 35 31 28 29 31 35 39 41 43 45 47 48 50 51 52 53 54 55 56 57 57 58 58 59 60 61 62 63 64 65 66
33 33 30 30 31 32 33 33 35 37 39 42 44 39 33 33 34 37 39 42 45 47 49 51 52 53 54 54 55 55 56 57 58 59 60 60 61 62 63 63 64 65 66 67
34 35 34 32 32 33 34 35 36 38 41 43 46 44 36 37 38 41 44 46 49 51 52 53 54 54 55 55 56 56 57 58 59 60 61 61 61 62 63 64 65 66 67 68
36 38 38 36 35 36 37 37 38 40 43 44 47 47 41 43 44 46 48 49 51 52 53 54 55 55 56 56 56 57 58 59 60 61 61 62 63 64 65 66 66 67 67 68
40 40 40 40 38 40 41 40 40 42 44 47 48 49 45 46 49 50 51 52 52 53 54 55 55 56 56 57 58 58 58 59 60 62 63 63 64 66 66 66 66 67 67 68
42 43 43 42 41 43 45 43 42 43 44 48 49 50 50 51 54 54 55 55 56 56 56 57 57 57 57 58 58 59 59 60 62 63 63 65 66 66 66 66 67 67 68 67
44 46 47 46 45 47 49 44 43 45 47 49 51 52 50 54 56 57 58 58 58 58 58 58 58 58 59 59 60 60 60 61 63 63 64 65 65 65 66 66 67 67 66 65
46 48 50 51 50 52 50 45 46 48 48 50 52 54 55 57 57 58 59 59 60 60 60 60 59 60 61 61 61 61 62 63 64 64 64 65 65 65 65 65 64 63 63 63
49 49 52 54 54 55 51 49 49 51 51 52 54 55 57 58 58 59 60 60 61 61 61 60 60 61 61 61 62 62 62 63 63 63 64 64 63 63 62 62 61 61 60 59
48 50 52 55 56 56 52 51 53 55 54 53 56 58 59 59 59 59 60 61 62 62 62 62 62 61 60 60 60 60 61 61 61 61 61 60 60 60 59 59 58 58 58 57
45 47 49 52 55 56 53 53 54 55 56 56 57 58 59 59 60 58 59 60 61 61 61 61 60 59 58 58 59 59 59 58 58 58 58 57 57 57 57 57 56 56 55 55
45 47 49 51 53 52 52 53 54 55 56 57 58 59 60 60 61 60 58 57 57 57 57 57 58 58 58 58 58 57 56 56 56 55 55 55 56 56 56 55 54 54 53 54
44 46 47 49 50 51 51 53 53 55 56 57 58 58 59 58 58 57 56 54 53 53 54 55 54 54 54 55 55 55 55 55 54 54 53 53 53 53 53 53 52 52 52 53
43 43 45 47 48 48 50 52 53 54 55 55 55 55 55 54 54 53 52 51 50 50 50 50 50 50 51 53 54 54 53 52 51 51 50 51 51 50 50 50 50 50 50 49
44 43 45 47 47 47 49 50 50 51 51 51 52 52 52 52 51 50 49 49 49 49 49 49 49 50 51 52 51 51 51 51 51 52 52 52 52 52 52 51 50 50 50 47
44 45 47 48 48 48 47 48 48 49 49 49 50 50 50 49 49 48 48 48 48 48 48 49 50 50 50 49 50 51 53 53 53 53 53 53 53 53 52 52 51 50 49 47
43 45 48 49 49 51 49 49 50 50 50 50 49 49 49 49 49 49 49 49 48 49 49 50 50 50 50 51 52 53 54 54 54 55 55 55 54 54 53 52 51 49 48 45
Wind_Direction
276 280 283 288 291 291 291 290 287 285 284 283 281 279 277 280 282 283 285 287 290 293 295 297 299 301 302 304 306 308 310 312 314 315 317 318 319 320 321 322 322 322 320 319
276 279 283 287 289 290 290 290 288 284 284 283 282 281 278 280 282 284 286 287 289 291 293 295 297 298 300 302 304 306 308 310 312 313 315 316 317 318 319 320 320 321 320 320
278 280 283 287 290 290 291 291 288 286 284 284 283 280 279 280 283 285 286 288 289 291 292 294 296 297 299 301 303 305 307 308 309 311 313 314 315 316 317 318 319 319 320 319
281 282 285 288 290 290 291 290 289 287 286 285 285 283 279 282 284 285 286 288 289 290 292 293 295 296 298 300 302 303 305 307 308 309 311 312 313 314 315 316 317 318 318 319
284 284 287 289 290 292 293 291 290 289 287 286 286 285 285 283 284 285 286 288 289 289 290 292 294 295 297 299 300 302 303 305 306 308 309 310 312 313 314 315 316 316 317 318
286 288 290 291 292 293 294 293 292 290 289 288 287 286 289 285 285 286 287 288 288 289 290 291 292 294 295 297 299 300 302 303 304 306 307 309 310 311 313 313 315 316 316 317
286 290 293 294 295 295 296 296 295 293 291 291 290 288 292 289 288 287 287 288 288 289 289 290 290 292 294 296 297 298 300 301 302 304 306 307 309 310 311 312 314 314 315 316
288 291 293 295 296 297 297 297 296 296 295 294 292 293 296 293 290 288 288 288 288 288 288 288 290 291 293 294 296 297 299 300 301 303 304 306 307 309 310 311 313 313 314 315
291 292 294 296 298 298 298 297 296 296 295 295 294 295 295 293 291 289 289 288 288 287 288 289 290 292 293 294 296 297 298 299 300 301 303 304 306 307 309 310 311 312 312 314
291 292 294 295 296 297 297 298 298 296 296 296 296 298 301 300 295 290 288 287 286 287 288 289 291 292 294 295 296 296 297 298 299 301 302 304 305 306 307 309 310 311 312 313
290 292 293 294 294 296 295 295 295 294 294 295 296 298 305 302 296 291 286 285 285 286 288 290 292 294 295 296 296 296 297 298 299 300 302 303 304 305 306 308 309 310 311 312
290 292 293 293 294 294 293 294 294 294 294 294 295 298 304 300 295 291 288 287 288 289 291 292 294 295 296 296 296 296 296 297 298 300 301 303 304 304 305 307 308 309 310 312
290 291 292 293 294 292 291 292 293 293 293 294 294 297 301 299 295 293 292 292 292 293 294 295 295 296 297 297 296 297 297 298 298 300 301 302 302 303 304 306 307 308 310 311
288 289 291 293 294 292 292 292 293 293 294 293 294 296 296 296 293 293 293 294 295 296 296 297 297 298 298 298 298 298 298 298 298 299 300 300 301 302 304 305 306 308 310 311
288 289 290 290 291 290 290 292 294 295 294 294 295 295 297 295 294 295 296 297 298 299 299 300 300 300 300 299 299 298 298 298 298 299 299 300 301 302 304 305 306 308 310 311
288 289 289 289 289 288 289 293 295 293 293 293 293 293 294 293 294 295 297 298 299 299 300 300 301 301 300 300 300 299 298 298 298 298 299 301 302 304 305 306 307 309 311 312
286 287 288 289 289 288 289 293 291 291 291 291 292 293 292 293 294 296 297 297 298 299 301 301 302 302 302 301 300 299 299 299 300 300 301 301 302 304 305 307 308 309 310 311
288 289 289 290 291 290 294 295 294 292 292 292 292 292 293 294 296 297 298 299 301 302 302 302 302 301 301 301 300 301 301 302 302 301 301 302 303 304 305 306 307 309 310 311
287 288 289 291 292 294 297 297 295 294 294 294 294 293 294 295 296 297 300 301 302 302 302 301 301 301 301 301 301 302 303 304 304 304 304 304 305 306 306 307 308 309 309 310
289 288 289 290 292 295 299 298 297 296 296 296 295 295 296 297 298 300 300 299 300 300 300 301 301 302 303 303 303 304 304 305 305 306 306 306 306 307 307 307 308 309 310 311
295 295 295 295 296 298 300 298 297 296 297 295 295 296 297 297 299 301 302 302 302 302 302 302 302 303 303 303 304 305 305 305 306 307 307 307 307 307 307 308 309 310 310 311
297 298 298 298 298 300 299 297 296 295 294 294 295 295 297 298 300 301 302 302 302 302 303 303 304 305 305 305 305 306 306 306 307 308 308 309 310 310 310 310 310 311 311 312
297 299 299 300 301 301 299 297 296 296 297 297 297 298 299 300 302 303 304 305 305 305 305 306 306 306 306 306 306 307 307 308 309 310 310 310 311 312 312 312 312 312 313 313
296 298 298 299 301 300 299 298 298 298 299 299 300 301 301 302 303 304 305 306 306 307 307 308 308 307 307 307 308 308 309 309 309 309 309 310 310 311 311 312 313 313 313 312
299 298 297 298 298 297 298 299 299 299 299 300 300 300 300 301 303 304 305 306 307 308 308 308 309 309 308 309 309 309 309 309 309 308 308 308 308 309 310 310 311 312 313 312
297 296 295 296 296 296 297 297 297 298 298 299 299 298 299 299 301 303 305 306 307 307 308 309 309 309 309 308 309 309 309 309 309 309 308 307 306 307 308 308 309 310 311 311